Regional Weather Roundup
Issued by NWS

Home | Current Version | Previous Version | Graphics & Text | Print | Product List | Glossary On
Versions: 1 2 3 4 5 6 7 8 9 10 11 12 13 14 15 16 17 18 19 20 21 22 23 24 25 26 27 28 29 30 31 32 33 34 35 36 37 38 39 40 41 42 43 44 45 46 47 48 49 50
000
ASUS43 KLMK 280702
RWRKY
KENTUCKY REGIONAL WEATHER ROUNDUP
NATIONAL WEATHER SERVICE LOUISVILLE KY
300 AM EDT SUN AUG 28 2016

NOTE "FAIR" INDICATES FEW OR NO CLOUDS BELOW 12,000 FEET
WITH NO SIGNIFICANT WEATHER AND/OR OBSTRUCTIONS TO VISIBILITY.

KYZ001>023-026-027-061>063-070>075-280800-
WESTERN AND SOUTH CENTRAL KENTUCKY

CITY           SKY/WX    TMP DP  RH WIND       PRES   REMARKS
PADUCAH        CLEAR     74  72  93 CALM      30.08F
HENDERSON      CLEAR     73  70  88 CALM      30.08S
OWENSBORO      CLEAR     78  77  97 CALM      30.10F
HOPKINSVILLE   CLEAR     75  71  89 CALM      30.09F
BOWLING GREEN  PTCLDY    75  73  93 CALM      30.11F
GLASGOW        CLEAR     70  70 100 NE5       30.12S
$$

KYZ024-025-028>034-038-045-046-053-280800-
NORTH CENTRAL KENTUCKY

CITY           SKY/WX    TMP DP  RH WIND       PRES   REMARKS
LOUISVILLE/SDF PTCLDY    79  72  79 CALM      30.11S
LOUISVILLE/LOU CLEAR     77  72  84 NW3       30.12S
FORT KNOX      CLEAR     72  69  92 NE2       30.10F
$$

KYZ035>037-039>044-047>052-055>060-089>105-280800-
NORTHEAST KENTUCKY

CITY           SKY/WX    TMP DP  RH WIND       PRES   REMARKS
LEXINGTON      PTCLDY    73  70  90 CALM      30.14F
COVINGTON      PTCLDY    75  73  93 CALM      30.15F
FRANKFORT      MOCLDY    74  70  87 CALM      30.13S
$$

KYZ054-064>069-076>088-106>120-280800-
SOUTHEAST KENTUCKY

CITY           SKY/WX    TMP DP  RH WIND       PRES   REMARKS
JACKSON        PTCLDY    75  69  81 CALM      30.15F
LONDON         CLOUDY    73  68  84 CALM      30.16S
SOMERSET       PTCLDY    68  68 100 CALM      30.15S
MIDDLESBORO    CLOUDY    67  67 100 CALM      30.16S
MONTICELLO     SUNNY    N/A N/A N/A CALM      30.16F
$$





USA.gov is the U.S. government's official web portal to all federal, state and local government web resources and services.